Temp
-6 -7 -7 -7 -7 -6 -7 -7 -7 -7 -8 -7 -6 -7 -7 -7 -8 -7 -7 -7 -7 -6 -6 -6 -6 -6 -6 -6 -6 -6 -6 -6 -6 -6 -6 -6 -6 -6 -6 -5 -5 -5 -5 -5 -5 -5 -5 -5 -5
-6 -7 -8 -8 -7 -7 -6 -6 -8 -8 -8 -8 -8 -8 -7 -8 -8 -8 -8 -7 -7 -6 -7 -6 -6 -6 -6 -7 -7 -7 -7 -7 -7 -7 -7 -6 -6 -6 -6 -6 -5 -5 -5 -6 -6 -6 -6 -5 -5
-6 -7 -7 -9 -9 -8 -7 -6 -7 -8 -9 -8 -9 -9 -7 -7 -7 -7 -7 -8 -7 -6 -7 -6 -7 -7 -7 -7 -7 -7 -7 -7 -7 -7 -7 -7 -7 -7 -6 -6 -6 -6 -6 -6 -6 -6 -6 -6 -6
-6 -7 -8 -8 -9 -8 -7 -6 -7 -8 -9 -9 -9 -8 -7 -8 -8 -7 -7 -7 -8 -6 -6 -6 -7 -7 -7 -7 -7 -7 -7 -7 -7 -7 -7 -7 -7 -7 -7 -7 -7 -7 -7 -7 -7 -6 -6 -6 -6
-7 -7 -8 -8 -9 -9 -8 -8 -7 -8 -8 -9 -9 -8 -8 -8 -8 -7 -7 -7 -9 -7 -7 -7 -7 -7 -7 -7 -7 -7 -7 -7 -7 -7 -7 -7 -7 -7 -7 -7 -7 -7 -7 -7 -7 -7 -7 -7 -6
-8 -7 -8 -9 -9 -9 -9 -8 -8 -7 -8 -9 -9 -8 -7 -8 -7 -7 -7 -8 -9 -7 -8 -8 -8 -8 -8 -8 -7 -7 -7 -7 -7 -7 -7 -7 -7 -7 -7 -7 -7 -7 -7 -7 -7 -7 -7 -7 -7
-7 -7 -8 -9 -9 -10 -9 -9 -9 -9 -9 -8 -8 -8 -8 -8 -7 -7 -8 -8 -6 -7 -7 -8 -9 -9 -9 -9 -8 -8 -8 -8 -8 -7 -7 -8 -8 -8 -8 -7 -7 -7 -7 -8 -8 -8 -8 -8 -7
-7 -6 -8 -10 -10 -10 -9 -9 -9 -9 -9 -8 -8 -8 -8 -8 -8 -8 -9 -8 -8 -8 -8 -8 -8 -9 -10 -10 -10 -9 -9 -8 -9 -8 -9 -9 -9 -9 -9 -9 -9 -9 -9 -8 -8 -8 -8 -7 -7
-6 -7 -8 -9 -10 -10 -9 -9 -8 -9 -10 -8 -8 -9 -9 -9 -9 -9 -9 -9 -9 -9 -9 -9 -9 -10 -10 -10 -10 -10 -11 -10 -10 -10 -9 -9 -9 -9 -9 -9 -9 -9 -9 -9 -10 -9 -8 -8 -8
-7 -7 -9 -10 -9 -10 -9 -9 -8 -8 -7 -7 -7 -8 -8 -8 -8 -10 -10 -10 -9 -9 -10 -10 -10 -10 -11 -10 -10 -11 -10 -10 -9 -10 -10 -9 -8 -8 -9 -9 -9 -9 -9 -9 -9 -9 -9 -9 -8
-7 -8 -8 -10 -10 -10 -9 -9 -8 -7 -7 -7 -8 -9 -8 -8 -9 -10 -10 -10 -11 -11 -11 -11 -10 -10 -10 -10 -10 -10 -10 -10 -10 -10 -9 -9 -9 -9 -9 -9 -9 -9 -9 -9 -8 -8 -9 -9 -9
-7 -8 -8 -9 -9 -8 -9 -8 -8 -8 -7 -8 -9 -10 -9 -9 -10 -10 -10 -10 -11 -10 -11 -11 -10 -11 -11 -11 -10 -10 -10 -10 -10 -10 -10 -10 -10 -10 -9 -9 -9 -9 -8 -9 -9 -9 -8 -9 -9
-7 -7 -8 -9 -8 -8 -8 -8 -8 -9 -9 -9 -9 -10 -10 -10 -11 -11 -11 -11 -11 -10 -10 -11 -12 -12 -12 -11 -12 -12 -11 -11 -11 -11 -10 -11 -10 -10 -9 -9 -10 -9 -9 -8 -8 -9 -9 -9 -9
-7 -7 -8 -8 -8 -8 -8 -9 -8 -9 -9 -9 -10 -10 -10 -11 -11 -11 -11 -11 -12 -11 -10 -11 -11 -12 -12 -12 -12 -12 -12 -12 -12 -12 -12 -12 -11 -10 -11 -11 -10 -9 -9 -9 -9 -9 -9 -9 -9
-8 -8 -9 -9 -9 -9 -9 -9 -9 -9 -10 -10 -10 -11 -11 -12 -12 -12 -12 -11 -11 -11 -11 -11 -11 -11 -12 -12 -12 -12 -12 -12 -12 -12 -12 -12 -12 -12 -12 -11 -10 -10 -10 -10 -9 -10 -10 -10 -10
-8 -8 -9 -9 -9 -9 -9 -9 -10 -10 -10 -11 -11 -12 -12 -12 -12 -12 -12 -12 -12 -11 -12 -11 -12 -12 -12 -12 -12 -12 -12 -12 -13 -12 -12 -12 -12 -12 -12 -11 -10 -10 -10 -10 -10 -10 -10 -11 -11
-8 -8 -8 -9 -9 -9 -9 -10 -10 -10 -10 -11 -11 -12 -13 -13 -12 -12 -12 -12 -12 -12 -12 -12 -12 -12 -12 -12 -12 -12 -12 -12 -12 -12 -12 -12 -11 -12 -11 -12 -12 -11 -11 -11 -11 -11 -11 -11 -11
-9 -9 -9 -9 -9 -9 -10 -11 -11 -11 -10 -10 -11 -12 -13 -13 -13 -13 -13 -13 -13 -12 -12 -13 -13 -12 -12 -12 -13 -13 -13 -13 -13 -12 -12 -12 -12 -12 -12 -13 -12 -12 -12 -11 -11 -12 -12 -12 -12
-10 -11 -10 -10 -11 -11 -11 -11 -11 -10 -10 -11 -11 -11 -13 -13 -13 -12 -13 -12 -12 -13 -12 -13 -13 -13 -12 -12 -13 -13 -13 -13 -13 -13 -12 -12 -12 -12 -12 -12 -12 -12 -12 -11 -11 -10 -11 -12 -11
-10 -11 -10 -11 -11 -11 -11 -11 -11 -11 -11 -11 -11 -12 -12 -13 -12 -12 -13 -13 -13 -13 -13 -13 -13 -13 -12 -12 -12 -12 -13 -13 -13 -12 -12 -12 -12 -12 -12 -12 -13 -12 -12 -12 -12 -12 -12 -12 -12
-10 -11 -11 -11 -12 -12 -12 -11 -11 -11 -11 -11 -12 -12 -12 -12 -12 -12 -13 -13 -13 -13 -13 -13 -13 -13 -12 -12 -13 -13 -13 -13 -13 -13 -13 -13 -12 -12 -12 -12 -12 -12 -12 -12 -12 -12 -12 -12 -12
-10 -11 -11 -12 -12 -12 -12 -11 -11 -11 -12 -12 -12 -12 -12 -12 -12 -12 -13 -13 -13 -13 -12 -13 -13 -13 -12 -13 -13 -13 -13 -13 -13 -13 -13 -13 -12 -12 -12 -12 -12 -12 -12 -12 -12 -12 -12 -12 -12
-11 -11 -11 -12 -12 -12 -12 -12 -12 -12 -12 -12 -13 -12 -12 -12 -13 -13 -14 -14 -14 -13 -13 -13 -13 -13 -13 -13 -13 -13 -13 -13 -13 -13 -13 -13 -12 -12 -12 -12 -12 -12 -12 -12 -12 -12 -12 -12 -12
-11 -11 -11 -11 -11 -11 -12 -12 -11 -12 -12 -12 -12 -12 -12 -12 -13 -13 -14 -14 -14 -14 -14 -14 -13 -13 -13 -13 -13 -13 -13 -13 -13 -13 -13 -13 -12 -12 -12 -12 -12 -12 -12 -13 -13 -13 -13 -13 -13
-11 -11 -11 -11 -11 -11 -11 -11 -11 -11 -12 -12 -12 -12 -12 -13 -13 -14 -14 -14 -14 -14 -14 -14 -14 -14 -14 -13 -13 -13 -13 -13 -13 -13 -13 -13 -13 -13 -13 -13 -13 -13 -13 -13 -13 -13 -13 -13 -13
-11 -12 -12 -11 -11 -11 -11 -11 -11 -11 -12 -13 -13 -13 -13 -13 -13 -14 -14 -15 -14 -14 -14 -14 -14 -14 -14 -14 -13 -13 -13 -13 -13 -13 -13 -13 -13 -13 -13 -13 -13 -13 -13 -13 -13 -13 -13 -13 -13
-13 -13 -13 -12 -12 -11 -11 -12 -12 -13 -13 -13 -13 -13 -13 -13 -14 -14 -15 -14 -13 -14 -14 -14 -14 -14 -13 -13 -13 -13 -13 -13 -12 -12 -13 -13 -13 -13 -13 -14 -14 -14 -14 -14 -14 -14 -14 -14 -14
-12 -12 -13 -13 -12 -12 -12 -12 -12 -13 -13 -13 -13 -13 -13 -14 -14 -15 -14 -13 -13 -14 -14 -14 -14 -13 -14 -14 -13 -13 -13 -13 -13 -13 -13 -13 -13 -14 -14 -14 -14 -14 -14 -14 -14 -14 -14 -14 -14
-13 -12 -12 -12 -13 -13 -13 -12 -13 -13 -13 -13 -13 -14 -14 -14 -15 -14 -14 -14 -14 -14 -14 -14 -14 -14 -14 -14 -14 -14 -14 -14 -14 -14 -14 -14 -14 -14 -14 -14 -14 -14 -14 -14 -14 -14 -15 -15 -15
-13 -13 -13 -13 -13 -13 -13 -12 -13 -13 -13 -13 -14 -14 -14 -14 -14 -14 -14 -14 -14 -14 -14 -14 -14 -14 -14 -14 -14 -14 -14 -14 -14 -14 -14 -14 -14 -14 -14 -14 -14 -14 -14 -15 -14 -14 -15 -15 -15
Height
5909 5909 5909 5909 5912 5909 5908 5908 5905 5901 5901 5898 5896 5894 5897 5897 5899 5899 5893 5892 5894 5893 5895 5896 5896 5897 5896 5897 5898 5898 5898 5899 5899 5900 5901 5901 5902 5902 5902 5902 5902 5901 5901 5901 5900 5900 5899 5899 5898
5908 5909 5909 5907 5909 5908 5909 5906 5900 5900 5896 5897 5895 5892 5888 5892 5899 5896 5895 5894 5894 5893 5894 5895 5896 5895 5896 5894 5893 5895 5896 5897 5896 5896 5896 5897 5898 5899 5900 5900 5899 5898 5897 5897 5896 5896 5896 5897 5897
5907 5908 5909 5906 5905 5907 5906 5905 5904 5902 5896 5895 5897 5896 5894 5898 5898 5898 5894 5890 5893 5893 5894 5894 5893 5894 5894 5895 5894 5895 5895 5895 5895 5893 5892 5893 5894 5894 5895 5895 5895 5894 5894 5893 5892 5892 5892 5892 5892
5906 5909 5909 5906 5903 5904 5907 5903 5901 5901 5900 5898 5894 5898 5898 5898 5896 5893 5889 5886 5887 5894 5893 5894 5892 5892 5893 5894 5893 5892 5892 5892 5893 5893 5893 5892 5892 5891 5890 5890 5890 5889 5888 5888 5888 5888 5888 5888 5887
5903 5907 5908 5906 5903 5902 5901 5901 5898 5896 5896 5895 5896 5897 5898 5897 5895 5890 5886 5883 5887 5896 5894 5895 5893 5893 5894 5894 5892 5891 5891 5891 5890 5889 5889 5889 5889 5888 5887 5886 5886 5885 5885 5884 5884 5883 5883 5883 5883
5900 5904 5907 5904 5902 5900 5897 5897 5897 5896 5894 5894 5894 5896 5896 5894 5892 5890 5887 5887 5890 5892 5890 5890 5891 5892 5892 5892 5892 5891 5891 5890 5889 5888 5888 5887 5886 5885 5883 5882 5881 5881 5880 5879 5879 5879 5879 5878 5876
5896 5899 5903 5901 5899 5897 5897 5895 5895 5893 5893 5894 5893 5892 5892 5891 5891 5889 5888 5886 5887 5889 5889 5887 5888 5889 5888 5887 5887 5887 5887 5888 5887 5887 5886 5884 5883 5881 5880 5880 5879 5877 5876 5876 5875 5874 5874 5871 5869
5894 5897 5898 5897 5895 5894 5894 5893 5892 5892 5892 5893 5892 5892 5889 5888 5888 5887 5886 5886 5887 5885 5884 5883 5883 5882 5883 5881 5884 5884 5883 5882 5880 5878 5878 5877 5876 5875 5875 5875 5875 5873 5872 5871 5870 5869 5868 5865 5861
5893 5895 5894 5892 5892 5892 5889 5890 5891 5890 5890 5891 5891 5890 5888 5887 5887 5889 5885 5884 5883 5882 5882 5881 5879 5877 5877 5879 5879 5879 5875 5875 5873 5872 5869 5869 5869 5866 5866 5866 5866 5864 5863 5861 5861 5861 5859 5857 5854
5892 5892 5890 5890 5890 5889 5886 5887 5888 5889 5890 5889 5889 5889 5888 5888 5886 5884 5884 5882 5880 5878 5877 5878 5877 5877 5875 5876 5874 5873 5871 5869 5868 5865 5864 5861 5859 5857 5858 5858 5855 5855 5854 5852 5849 5847 5846 5845 5844
5889 5888 5888 5887 5886 5884 5883 5885 5885 5885 5888 5888 5887 5884 5884 5884 5883 5881 5880 5876 5874 5873 5872 5873 5874 5872 5871 5869 5868 5867 5864 5861 5859 5857 5855 5852 5853 5852 5849 5847 5846 5843 5841 5840 5836 5830 5829 5829 5830
5885 5885 5886 5885 5882 5882 5881 5882 5883 5884 5884 5884 5884 5883 5882 5881 5879 5875 5874 5872 5870 5869 5868 5869 5868 5866 5866 5865 5862 5859 5856 5855 5851 5848 5845 5842 5842 5841 5840 5837 5837 5834 5833 5828 5823 5815 5812 5813 5817
5883 5882 5883 5882 5880 5880 5881 5880 5880 5880 5881 5881 5882 5880 5878 5876 5874 5872 5871 5869 5867 5865 5864 5862 5861 5860 5859 5856 5853 5852 5851 5847 5844 5840 5838 5834 5831 5830 5830 5831 5827 5826 5824 5818 5813 5809 5810 5810 5808
5880 5881 5881 5876 5878 5879 5879 5879 5880 5880 5880 5879 5877 5876 5874 5873 5872 5871 5869 5867 5864 5861 5860 5858 5857 5854 5852 5850 5849 5846 5843 5839 5837 5835 5833 5831 5829 5825 5821 5819 5819 5818 5816 5811 5809 5807 5804 5803 5803
5877 5879 5877 5874 5876 5877 5877 5878 5878 5879 5879 5878 5875 5874 5872 5871 5870 5869 5869 5867 5864 5861 5858 5855 5852 5849 5846 5842 5840 5838 5836 5834 5833 5829 5827 5825 5824 5821 5819 5816 5813 5811 5807 5805 5803 5801 5798 5797 5798
5872 5873 5874 5869 5872 5874 5875 5876 5877 5877 5876 5874 5873 5872 5870 5868 5866 5865 5864 5863 5861 5858 5855 5851 5847 5844 5841 5837 5834 5832 5831 5829 5826 5824 5822 5819 5817 5815 5813 5810 5805 5802 5800 5798 5794 5792 5792 5790 5788
5867 5868 5869 5869 5868 5871 5873 5874 5875 5874 5873 5872 5870 5869 5867 5866 5864 5862 5861 5859 5857 5855 5852 5850 5846 5840 5835 5832 5829 5826 5824 5823 5819 5817 5815 5812 5809 5806 5804 5801 5797 5795 5793 5791 5787 5784 5782 5780 5779
5864 5865 5865 5866 5867 5868 5868 5869 5870 5869 5870 5869 5868 5866 5864 5863 5862 5860 5858 5855 5853 5850 5846 5842 5838 5834 5829 5826 5822 5818 5816 5813 5810 5808 5806 5803 5801 5799 5797 5794 5792 5789 5787 5785 5781 5779 5775 5773 5772
5861 5862 5861 5863 5864 5864 5864 5866 5865 5865 5865 5863 5863 5861 5861 5860 5858 5856 5853 5850 5848 5845 5841 5835 5829 5825 5820 5816 5812 5809 5806 5803 5799 5796 5794 5792 5789 5787 5785 5783 5782 5781 5779 5776 5772 5769 5766 5764 5762
5859 5859 5857 5859 5859 5860 5861 5861 5860 5860 5859 5861 5860 5858 5857 5855 5853 5850 5847 5844 5842 5838 5833 5828 5822 5817 5812 5808 5803 5799 5796 5792 5789 5787 5785 5783 5779 5776 5774 5773 5772 5770 5767 5764 5761 5757 5754 5751 5748
5855 5856 5854 5855 5856 5855 5857 5857 5857 5857 5857 5856 5856 5854 5852 5850 5847 5844 5840 5837 5834 5829 5825 5819 5814 5808 5803 5798 5795 5791 5788 5784 5781 5778 5776 5774 5771 5768 5765 5763 5760 5758 5757 5754 5750 5748 5744 5742 5738
5852 5853 5852 5852 5853 5853 5853 5852 5852 5852 5851 5851 5849 5847 5845 5843 5841 5838 5834 5829 5827 5823 5818 5812 5806 5800 5795 5791 5787 5783 5779 5776 5772 5769 5767 5764 5762 5759 5755 5752 5749 5746 5743 5740 5737 5734 5730 5727 5724
5849 5850 5851 5850 5850 5849 5849 5847 5846 5846 5847 5845 5843 5841 5839 5836 5833 5830 5823 5821 5818 5814 5810 5804 5800 5793 5789 5784 5779 5775 5770 5766 5764 5761 5758 5755 5752 5750 5746 5744 5740 5736 5731 5727 5724 5721 5718 5715 5713
5844 5846 5847 5847 5848 5846 5845 5843 5839 5841 5842 5838 5837 5835 5833 5831 5828 5824 5819 5814 5809 5804 5798 5794 5790 5785 5780 5776 5772 5767 5763 5759 5755 5752 5749 5746 5743 5740 5737 5733 5730 5726 5722 5718 5714 5711 5707 5703 5700
5841 5843 5842 5843 5841 5841 5841 5838 5836 5835 5834 5833 5832 5830 5827 5826 5824 5819 5813 5808 5801 5796 5790 5786 5781 5775 5770 5767 5763 5759 5755 5751 5747 5743 5740 5737 5733 5730 5727 5724 5721 5718 5715 5712 5708 5705 5702 5698 5693
5837 5838 5838 5837 5837 5837 5835 5832 5832 5830 5828 5826 5825 5823 5822 5820 5816 5811 5806 5798 5793 5788 5783 5777 5772 5767 5762 5758 5754 5750 5746 5741 5737 5734 5731 5728 5725 5722 5719 5717 5714 5712 5709 5705 5702 5699 5695 5691 5686
5835 5833 5833 5831 5830 5829 5828 5827 5826 5824 5823 5820 5818 5817 5814 5813 5809 5803 5796 5789 5784 5781 5776 5770 5765 5760 5754 5749 5745 5741 5736 5732 5729 5725 5722 5719 5717 5715 5714 5712 5709 5706 5703 5700 5696 5692 5687 5682 5677
5828 5829 5828 5826 5823 5821 5821 5821 5820 5820 5817 5814 5812 5810 5808 5806 5801 5794 5787 5782 5777 5773 5767 5761 5756 5751 5745 5741 5737 5732 5728 5724 5721 5719 5717 5715 5713 5712 5710 5708 5705 5702 5698 5694 5690 5684 5678 5673 5667
5822 5822 5822 5820 5819 5816 5815 5815 5814 5812 5810 5809 5806 5804 5802 5798 5792 5786 5780 5775 5771 5765 5758 5752 5745 5740 5736 5732 5729 5725 5722 5720 5717 5715 5714 5712 5711 5709 5708 5705 5702 5697 5693 5688 5683 5677 5671 5665 5658
5817 5816 5815 5813 5814 5811 5810 5810 5807 5805 5804 5801 5799 5797 5794 5788 5783 5778 5773 5768 5762 5754 5748 5742 5736 5731 5727 5725 5722 5720 5718 5716 5714 5712 5711 5709 5709 5707 5705 5700 5696 5692 5688 5683 5677 5670 5664 5656 5649
Wind_Speed
6 2 2 4 4 4 3 3 8 15 12 15 4 3 2 2 12 18 26 22 5 5 9 10 10 10 9 10 10 10 11 10 9 10 11 12 13 15 15 16 16 15 16 15 16 16 16 15 16
6 4 2 6 6 4 3 3 8 12 21 20 23 17 10 16 19 15 31 24 16 9 8 7 8 7 9 10 10 11 12 13 12 12 12 13 14 16 17 18 19 19 19 18 18 18 18 18 18
10 6 6 4 5 7 9 9 9 13 24 21 20 23 23 29 25 21 28 23 18 14 9 9 6 5 7 8 9 11 13 15 16 15 16 16 17 17 18 19 21 21 21 22 22 22 22 22 22
15 8 7 8 5 10 6 8 11 13 17 16 20 24 26 29 25 26 31 28 25 9 6 8 6 7 9 10 8 10 13 16 17 19 19 19 20 21 22 22 23 23 23 24 25 25 25 26 27
19 15 9 10 9 6 8 7 11 14 18 19 20 24 24 24 28 22 33 25 13 4 6 12 14 14 15 15 15 15 15 15 17 19 22 23 25 25 26 26 27 27 28 29 30 29 29 29 29
28 24 17 13 10 9 11 10 11 15 19 20 22 24 22 24 30 30 22 19 7 7 6 11 16 19 21 23 22 22 22 22 23 24 25 26 26 28 30 31 32 33 34 34 34 33 32 32 32
20 21 21 16 17 17 16 11 4 13 18 21 26 28 30 28 29 29 7 7 2 11 9 17 18 21 21 23 26 25 25 27 29 30 31 32 32 33 34 36 37 38 38 38 37 36 35 35 35
15 14 17 24 22 23 25 25 13 12 19 20 23 29 26 26 32 23 10 6 6 13 19 17 19 22 24 28 27 27 26 29 31 31 32 31 32 33 34 36 38 41 41 41 42 42 42 42 41
14 12 18 29 24 25 30 27 25 20 22 26 25 22 27 32 31 21 16 16 16 17 16 19 18 19 24 24 25 31 28 31 35 34 36 38 39 39 40 41 41 44 43 42 44 49 49 48 48
14 13 23 26 27 26 33 32 31 33 31 30 29 26 30 28 25 25 17 18 19 17 21 19 20 23 23 24 24 26 34 33 39 33 38 45 48 46 44 45 50 49 51 49 51 56 58 56 53
14 17 23 28 29 30 33 32 32 32 30 30 29 31 31 30 20 11 13 17 20 21 25 28 27 26 28 33 30 29 31 36 35 35 42 43 45 45 40 32 43 51 51 60 65 57 60 71 61
19 18 22 29 33 31 32 29 31 31 31 29 30 34 32 20 12 14 20 22 24 25 28 31 28 28 27 29 32 33 37 35 35 39 37 38 39 43 47 45 51 49 55 62 59 46 47 55 59
17 19 22 29 30 31 29 31 31 31 30 28 26 24 18 13 14 18 22 23 25 27 30 32 30 23 21 24 22 24 27 30 30 32 36 40 38 44 45 48 43 41 43 46 28 26 45 48 48
17 19 22 29 29 31 31 33 30 28 27 25 16 14 15 15 17 18 21 23 27 29 29 32 31 29 26 26 24 26 29 30 31 35 35 40 41 43 40 41 40 44 31 28 35 34 31 37 45
15 13 18 28 31 34 32 32 27 21 19 14 13 16 18 20 21 21 20 20 25 28 30 32 33 29 31 30 28 28 29 33 33 35 35 33 37 31 31 36 37 35 30 28 19 18 17 20 27
16 18 20 24 29 33 30 27 20 13 15 9 13 17 21 25 25 23 21 24 25 26 28 30 31 31 35 33 33 34 34 32 30 32 31 31 29 31 30 31 32 30 33 35 35 28 33 28 29
19 20 21 22 22 21 19 16 14 13 13 12 15 19 23 27 22 24 26 28 29 28 27 28 28 35 40 35 35 36 35 34 35 35 37 36 34 33 32 28 27 29 31 36 39 41 48 51 39
19 21 22 21 22 18 12 11 14 17 16 15 17 18 22 26 23 29 31 31 28 29 30 33 38 39 37 36 34 35 34 36 39 40 39 40 39 37 35 31 30 32 34 38 35 33 36 34 34
19 21 23 18 15 17 13 13 17 20 17 19 19 20 23 26 29 31 29 29 28 30 33 36 34 36 36 37 39 37 37 38 40 41 44 43 43 40 37 39 40 37 37 39 40 41 39 39 38
20 22 24 19 18 18 17 16 19 21 21 22 23 23 26 30 33 31 32 29 31 35 35 39 36 39 37 35 37 40 42 43 44 44 43 40 39 38 37 37 37 38 38 39 39 40 41 44 46
20 22 20 19 16 20 21 21 23 26 26 25 27 28 30 33 34 35 33 30 34 39 41 41 40 45 41 39 38 39 40 41 43 41 41 41 40 40 39 39 38 37 36 37 39 40 42 44 47
23 19 24 21 20 24 26 28 28 28 31 34 35 34 38 42 39 39 39 39 37 41 42 46 45 42 39 38 38 39 39 39 38 38 37 38 38 38 40 40 39 39 40 40 41 42 43 44 43
20 16 22 28 27 29 31 34 35 34 35 36 38 40 42 41 36 40 29 33 38 39 47 43 43 38 38 38 38 38 39 39 38 37 37 38 38 38 38 39 40 41 41 42 40 37 35 36 39
19 16 17 21 31 36 35 40 43 41 40 44 44 36 35 32 29 37 36 36 40 44 48 47 44 41 40 40 39 39 39 39 38 38 38 37 38 39 39 39 40 39 36 34 35 36 35 34 35
19 19 22 23 26 30 33 39 43 44 45 44 40 35 34 33 35 35 38 40 43 48 49 45 42 44 46 45 43 41 39 38 39 39 38 38 39 39 38 36 31 30 30 30 30 26 27 28 30
19 18 18 24 25 27 30 34 34 34 38 40 41 41 42 42 38 39 41 43 45 45 44 44 45 47 46 45 44 42 41 40 39 38 38 38 36 32 26 25 24 24 23 23 25 28 29 29 32
14 17 17 19 21 22 23 27 30 32 33 38 40 39 39 37 37 40 40 43 46 46 44 45 45 45 43 42 41 40 39 38 37 36 33 26 20 21 19 18 20 23 25 25 26 29 30 34 37
18 19 22 24 25 25 24 23 25 27 30 34 34 34 35 33 33 35 40 45 46 44 44 45 45 42 41 39 37 35 34 33 28 21 19 19 16 15 14 18 22 24 24 26 29 33 36 38 40
21 21 22 24 25 26 27 26 27 27 29 30 30 31 31 31 33 38 42 43 43 44 44 43 43 41 39 34 27 25 23 20 22 19 17 15 12 12 16 21 23 23 27 31 34 37 40 42 43
24 29 30 29 26 26 25 26 28 29 27 29 30 31 31 33 36 39 41 42 43 44 42 42 40 37 32 28 26 26 23 20 18 16 15 11 11 16 21 23 24 28 32 34 38 41 42 44 44
Wind_Direction
261 281 278 228 252 174 151 13 342 356 347 328 286 204 211 257 313 309 301 303 183 212 236 235 234 234 241 253 260 262 262 260 267 276 279 277 276 275 272 272 275 277 280 280 282 281 277 273 270
243 247 218 234 270 278 229 284 316 345 331 327 337 333 352 23 354 314 318 280 278 230 227 222 231 237 249 249 250 259 262 259 253 254 257 260 262 268 272 274 276 279 280 278 275 272 269 269 267
228 236 235 208 246 241 265 276 330 344 332 332 332 335 331 345 349 340 312 305 259 232 219 218 216 248 262 269 272 270 267 265 260 255 251 253 254 256 261 265 270 274 275 275 274 272 270 268 266
239 215 218 245 290 278 269 262 327 322 323 320 334 338 347 349 348 350 357 321 224 225 247 258 251 257 270 268 265 260 261 264 268 268 267 264 264 262 262 263 265 266 267 270 272 271 270 270 269
239 226 216 238 259 294 300 307 275 315 308 326 330 338 341 344 346 328 347 350 156 294 329 314 317 307 294 281 275 274 274 274 272 267 266 264 264 263 262 261 262 264 268 271 272 270 268 268 269
240 237 241 229 234 244 246 262 297 291 300 313 312 327 341 334 342 355 1 34 170 270 310 313 313 307 305 302 297 289 284 279 276 274 272 272 270 268 265 266 267 269 270 271 271 270 268 267 267
240 238 233 217 223 244 256 274 325 292 291 306 321 325 329 337 347 352 20 346 13 232 291 318 300 290 285 285 285 281 280 284 285 286 281 278 276 275 276 277 278 278 278 275 271 268 265 264 263
232 226 212 203 219 236 251 259 262 272 285 287 307 324 323 330 339 356 357 341 345 303 295 298 287 272 279 275 277 281 281 278 271 272 271 268 268 271 274 278 281 283 282 278 275 271 267 263 261
235 219 204 205 220 234 249 255 260 272 288 299 303 303 308 320 332 342 334 334 302 285 277 293 282 318 260 288 290 280 274 277 275 269 267 270 275 273 270 268 268 269 269 270 275 273 267 263 260
238 214 194 203 220 235 249 259 269 277 286 298 304 303 307 321 330 333 310 299 306 296 316 315 305 309 314 306 303 291 275 290 288 290 293 278 270 273 272 276 274 272 272 273 273 272 261 259 259
210 219 217 208 223 234 251 263 271 281 287 297 304 310 319 327 334 332 330 324 318 312 313 311 306 303 302 299 300 293 288 290 295 296 288 275 281 282 267 264 283 284 283 284 281 279 274 257 250
211 215 223 223 234 248 257 268 273 280 292 300 306 311 317 332 341 336 332 324 324 321 318 313 310 307 301 290 286 286 290 293 292 293 285 278 279 279 270 271 281 280 286 289 290 281 259 259 247
224 221 225 227 245 255 264 267 273 282 295 304 312 317 322 337 341 338 333 329 328 322 319 321 322 312 294 287 280 280 283 283 284 284 284 288 288 279 273 274 283 286 300 299 290 280 254 253 251
238 238 233 240 247 251 256 260 273 284 304 321 335 331 340 349 345 343 336 330 324 323 322 320 319 311 303 289 285 287 292 293 292 295 293 286 287 285 294 299 295 287 287 270 300 278 282 272 263
236 240 240 240 240 243 254 259 274 296 317 332 346 332 340 347 340 331 325 324 321 318 318 318 316 312 305 303 302 296 301 295 293 295 296 297 291 301 296 293 289 280 281 275 273 299 307 299 268
221 219 216 228 231 236 249 259 273 290 314 323 331 327 341 338 327 324 322 323 322 317 311 312 311 312 313 304 301 297 295 294 293 293 298 305 306 302 300 296 289 287 285 284 274 275 293 307 308
222 226 225 222 239 233 237 247 252 287 318 298 304 333 338 327 314 316 318 319 319 315 306 305 303 306 309 299 293 291 292 290 290 290 294 300 303 303 301 296 299 295 295 296 301 296 301 299 306
223 220 227 228 237 251 264 273 285 290 302 302 295 315 322 316 301 305 310 306 310 310 311 308 303 303 302 292 288 285 285 285 284 290 292 296 297 295 294 293 289 287 286 287 289 283 287 282 282
211 214 231 230 235 252 257 266 278 286 299 302 302 300 308 303 302 301 301 307 306 308 317 321 305 300 302 302 297 288 288 287 288 289 294 297 298 295 291 287 287 283 280 280 285 287 283 275 273
212 220 244 244 246 254 258 261 271 285 288 293 296 298 299 305 298 298 299 300 306 312 315 313 315 316 310 306 302 298 293 290 290 292 294 297 299 300 299 296 291 287 285 282 280 279 280 281 278
222 227 228 247 257 252 246 259 275 285 288 292 296 295 296 299 296 300 299 304 305 310 313 315 310 313 310 305 304 301 299 295 294 292 291 293 294 293 294 294 291 288 282 281 281 280 279 278 279
245 227 216 233 258 254 258 265 276 282 292 293 291 293 295 296 294 297 296 294 303 308 308 310 311 310 309 307 303 301 300 300 300 298 294 293 295 297 297 297 295 293 294 293 290 290 290 289 286
248 254 232 237 248 251 257 267 272 274 283 284 286 284 287 291 292 295 311 307 306 308 308 307 314 315 312 309 305 302 300 299 299 297 295 295 295 295 295 295 297 298 299 300 301 298 294 292 290
242 247 250 246 243 247 251 259 268 269 272 273 281 282 284 288 293 308 309 307 307 307 309 311 315 314 311 308 305 302 301 301 300 298 297 296 296 297 299 300 301 301 302 302 301 300 300 299 298
255 257 253 245 243 247 252 257 264 270 272 272 275 282 289 297 301 304 305 308 305 307 308 310 310 312 310 308 305 303 300 298 297 298 298 299 299 300 301 302 302 302 301 301 300 300 300 301 303
267 279 275 265 263 262 264 266 269 273 275 276 279 287 294 300 303 306 308 306 304 304 306 308 308 305 303 303 303 303 303 301 300 300 300 299 298 299 301 303 303 305 307 306 305 303 304 306 307
279 280 287 279 277 277 273 273 277 278 282 285 287 292 294 298 304 309 308 300 297 304 303 301 298 298 301 303 303 302 302 301 300 300 301 304 309 308 308 307 308 309 310 311 310 308 309 308 307
286 284 287 287 291 289 288 283 283 283 282 283 287 292 297 305 306 304 298 300 306 307 303 298 298 302 305 305 303 300 298 299 305 311 313 311 308 306 308 315 315 312 312 311 312 311 311 311 310
292 294 288 283 287 290 290 291 291 292 291 294 296 298 304 305 302 298 301 304 304 302 301 303 305 306 304 304 302 301 305 306 309 312 312 309 305 306 315 318 318 318 317 316 315 316 315 313 311
291 296 292 288 288 286 290 290 296 298 301 301 303 305 305 298 297 300 301 304 304 306 308 306 306 307 305 302 296 297 303 305 308 310 313 311 311 316 319 322 322 321 319 319 317 314 313 313 312